Miscellaneous Local Product
Issued by NWS North Platte, NE

Home | Current Version | Previous Version | Graphics & Text | Print | Product List | Glossary On
Versions: 1 2 3 4 5 6 7 8 9 10 11 12 13 14 15 16 17 18 19 20 21 22 23 24 25 26 27 28 29 30 31 32 33 34 35 36 37 38 39 40 41 42 43 44 45 46 47 48 49 50
000
AXUS43 KLBF 221410
MISLBF


WESTERN AND NORTH CENTRAL NEBRASKA HOURLY WEATHER ROUNDUP
NATIONAL WEATHER SERVICE NORTH PLATTE NE
900 AM CDT MON SEP 22 2014

***STATIONS NOT REPORTING VARIABLES SUCH AS SKY/WEATHER OR
PRESSURE ARE PROVIDED BY THE NEBRASKA DEPARTMENT OF
ROADS...RAWS...AND APRS NETWORKS...AND ARE NOT UNDER
NATIONAL WEATHER SERVICE QUALITY CONTROL***

...OBSERVATIONS IN AND NEAR THE EASTERN PANHANDLE OF NEBRASKA...

CITY           SKY/WX    TMP DP  RH WIND       PRES   REMARKS
PINE RIDGE     CLOUDY    62  42  47 S16G23    30.12F
CHADRON        PTSUNNY   62  43  49 S13       30.11F
ALLIANCE       MOSUNNY   57  42  57 S20       30.15F
SIDNEY         PTSUNNY   60  42  51 S16       30.20F
WHITECLAY        N/A     62  40  44 S20         N/A
RUSHVILLE        N/A     60  37  42 S18         N/A
CRESCENT LAKE    N/A     57  42  58 SE12G18     N/A
LISCO            N/A     62  39  42 E15         N/A
BIG SPRINGS      N/A     52  46  79 CALM        N/A
$$

...OBSERVATIONS IN NORTH CENTRAL NEBRASKA...

CITY           SKY/WX    TMP DP  RH WIND       PRES   REMARKS
VALENTINE      PTSUNNY   57  43  59 S9        30.21F
THEDFORD       MOSUNNY   59  45  58 S17       30.25F
AINSWORTH      MOSUNNY   54  45  70 S13       30.24S
O`NEILL        SUNNY     53  49  86 S6        30.27F
ORD            SUNNY     49  46  90 CALM      30.28F
BROKEN BOW     SUNNY     55  47  74 S12       30.28F
SPRINGVIEW       N/A     48  46  94 CALM        N/A
ROSE             N/A     56  50  81 SE9         N/A
NEWPORT          N/A     57  49  73 S12         N/A
COMSTOCK         N/A     58  50  75 S7          N/A
CHAMBERS         N/A     54  47  76 S3          N/A
$$

...OBSERVATIONS IN SOUTHWEST NEBRASKA AND FAR NORTHEAST COLORADO...

CITY           SKY/WX    TMP DP  RH WIND       PRES   REMARKS
WRAY           CLOUDY    60  43  52 SE8       30.23F
HOLYOKE        FAIR      61  45  55 S12       30.21F
IMPERIAL       MOSUNNY   59  42  53 SE9       30.24F
OGALLALA       PTSUNNY   58  45  62 NE3       30.23S
NORTH PLATTE   PTSUNNY   57  44  62 SE8       30.26F
MCCOOK         MOSUNNY   56  44  64 E6        30.28F
LEXINGTON      MOSUNNY   57  50  76 S7        30.30S
PAXTON           N/A     51  45  79 CALM        N/A
SUTHERLAND       N/A     51  41  69 SE6         N/A
BRADY            N/A     55  47  75 CALM        N/A
GOTHENBURG       N/A     50  44  79 E3          N/A
CALLAWAY         N/A     48  46  93 S7          N/A
$$

...SOME WEATHER OBSERVATIONS FROM AROUND THE REGION...

CITY           SKY/WX    TMP DP  RH WIND       PRES   REMARKS
DENVER         CLOUDY    61  50  67 W10       30.20R
LARAMIE        LGT RAIN  57  46  66 SW9G25    30.27F
CHEYENNE       LGT RAIN  50  47  89 SW10      30.24R
SCOTTSBLUFF    MOSUNNY   61  44  53 E9        30.15S
RAPID CITY     CLOUDY    54  41  61 SE8       30.09F
PIERRE         SUNNY     55  44  66 SE10      30.15F
WINNER         FAIR      60  44  55 S21       30.19F
SIOUX FALLS    MOSUNNY   54  49  83 CALM      30.28S
OMAHA          MOSUNNY   55  52  89 CALM      30.32S
GRAND ISLAND   SUNNY     57  48  72 S7        30.31F
KANSAS CITY    SUNNY     57  51  80 N3        30.32S
WICHITA        MOSUNNY   63  48  58 SE5       30.32S
HAYS           MOSUNNY   59  46  63 S9        30.32S
LIBERAL        SUNNY     59  43  55 SE8       30.33S
GOODLAND       MOSUNNY   56  43  61 S16       30.28F
$$



USA.gov is the U.S. government's official web portal to all federal, state and local government web resources and services.